Location: Chavenne
(46.6022°N, 3.2951°E)
Time: 22:07:00
(UTC+00:00)

STARLINK-1243 - Pass Details

Date: 09 April 2020
Orbit: 549 x 550 km, 53.0° (Epoch: 26 May)

Event Time Altitude Azimuth Distance (km) Brightness Sun altitude
Rises 20:50:59 0° 299° (WNW) 2,732 8.5 -22.7°
Reaches altitude 10° 20:53:14 10° 296° (WNW) 1,836 7.3 -23.0°
Enters shadow 20:57:06 62° 238° (WSW) 625 3.8 -23.5°
